EZY93AR EGKK-LDSP

Flight info

Callsign EZY93AR
Flight time N/A
Altitude 39000
Route MIMFO Y312 DVR UL9 KONAN DCT KOK DCT RITAX DCT KRH DCT UTABA DCT BEMKI DCT ELMEM DCT DIRAB DCT PEVAL DCT PUL DCT LOS DCT MINTU DCT SAL
Aircraft A319/M-SDE3FGHIRWY/LB1

Departure

Time 2026-04-16 15:32
Airport London Gatwick Airport (EGKK)

Arrival

Time N/A
Airport Split Saint Jerome Airport (LDSP)
Time Latitude Longitude Altitude Speed Heading
2026-04-16 14:53 51.15378 -0.18892 215 ft 0 kts 258°
2026-04-16 15:20 51.15379 -0.18880 204 ft 4 kts 258°
2026-04-16 15:20 51.15385 -0.18838 210 ft 4 kts 258°
2026-04-16 15:21 51.15391 -0.18797 212 ft 4 kts 240°
2026-04-16 15:21 51.15400 -0.18780 207 ft 4 kts 192°
2026-04-16 15:21 51.15426 -0.18784 210 ft 2 kts 167°
2026-04-16 15:21 51.15427 -0.18784 210 ft 0 kts 167°
2026-04-16 15:24 51.15413 -0.18779 211 ft 5 kts 167°
2026-04-16 15:25 51.15359 -0.18760 204 ft 11 kts 167°
2026-04-16 15:25 51.15265 -0.18727 214 ft 17 kts 167°
2026-04-16 15:25 51.15147 -0.18646 207 ft 19 kts 109°
2026-04-16 15:25 51.15169 -0.18442 205 ft 19 kts 78°
2026-04-16 15:26 51.15191 -0.18235 207 ft 19 kts 81°
2026-04-16 15:26 51.15220 -0.18022 210 ft 20 kts 78°
2026-04-16 15:26 51.15248 -0.17807 211 ft 20 kts 78°
2026-04-16 15:26 51.15280 -0.17588 205 ft 21 kts 77°
2026-04-16 15:27 51.15295 -0.17372 204 ft 16 kts 115°
2026-04-16 15:27 51.15244 -0.17238 204 ft 15 kts 79°
2026-04-16 15:27 51.15268 -0.17077 204 ft 15 kts 77°
2026-04-16 15:27 51.15291 -0.16907 209 ft 16 kts 77°
2026-04-16 15:28 51.15273 -0.16825 207 ft 0 kts 159°
2026-04-16 15:30 51.15271 -0.16824 207 ft 1 kts 159°
2026-04-16 15:30 51.15262 -0.16819 206 ft 2 kts 160°
2026-04-16 15:30 51.15244 -0.16813 204 ft 4 kts 169°
2026-04-16 15:30 51.15208 -0.16801 210 ft 7 kts 169°
2026-04-16 15:31 51.15149 -0.16795 202 ft 11 kts 195°
2026-04-16 15:31 51.15107 -0.16901 202 ft 13 kts 262°
2026-04-16 15:31 51.15085 -0.17069 210 ft 28 kts 257°
2026-04-16 15:31 51.14980 -0.17810 210 ft 106 kts 258°
2026-04-16 15:32 51.14768 -0.19283 271 ft 158 kts 262°
2026-04-16 15:32 51.14500 -0.20996 964 ft 158 kts 252°
2026-04-16 15:32 51.14269 -0.22713 1758 ft 163 kts 253°
2026-04-16 15:32 51.14022 -0.24601 2196 ft 185 kts 255°
2026-04-16 15:33 51.13746 -0.26732 2705 ft 206 kts 258°
2026-04-16 15:33 51.13829 -0.29066 3666 ft 218 kts 286°
2026-04-16 15:33 51.14669 -0.31092 4645 ft 229 kts 316°
2026-04-16 15:33 51.16139 -0.32183 5607 ft 244 kts 348°
2026-04-16 15:34 51.17835 -0.31767 6591 ft 255 kts 26°
2026-04-16 15:34 51.19116 -0.29806 7468 ft 261 kts 64°
2026-04-16 15:34 51.19643 -0.27024 8374 ft 264 kts 81°
2026-04-16 15:34 51.19991 -0.24115 9280 ft 269 kts 82°
2026-04-16 15:35 51.20314 -0.21161 10193 ft 273 kts 82°
2026-04-16 15:35 51.20659 -0.18079 10716 ft 294 kts 81°
2026-04-16 15:35 51.21057 -0.14766 11206 ft 313 kts 80°
2026-04-16 15:35 51.21505 -0.11225 11552 ft 338 kts 79°
2026-04-16 15:36 51.22002 -0.07419 11866 ft 361 kts 79°
2026-04-16 15:36 51.22530 -0.03430 12462 ft 373 kts 79°
2026-04-16 15:36 51.23070 0.00664 13112 ft 379 kts 79°
2026-04-16 15:36 51.23612 0.04799 13898 ft 384 kts 79°
2026-04-16 15:37 51.24157 0.08993 14579 ft 388 kts 79°
2026-04-16 15:37 51.24707 0.13240 15239 ft 393 kts 79°
2026-04-16 15:37 51.25215 0.17560 15874 ft 398 kts 84°
2026-04-16 15:37 51.25318 0.21983 16502 ft 401 kts 95°
2026-04-16 15:38 51.25015 0.26430 17139 ft 405 kts 99°
2026-04-16 15:38 51.24667 0.30921 17772 ft 410 kts 99°
2026-04-16 15:38 51.24322 0.35470 18380 ft 415 kts 98°
2026-04-16 15:38 51.23974 0.40065 18958 ft 420 kts 98°
2026-04-16 15:39 51.23620 0.44713 19538 ft 424 kts 98°
2026-04-16 15:39 51.23260 0.49407 20117 ft 428 kts 98°
2026-04-16 15:39 51.22901 0.54081 20699 ft 432 kts 98°
2026-04-16 15:39 51.22531 0.58861 21297 ft 436 kts 98°
2026-04-16 15:40 51.22155 0.63686 21879 ft 440 kts 98°
2026-04-16 15:40 51.21774 0.68555 22451 ft 444 kts 98°
2026-04-16 15:40 51.21385 0.73469 23009 ft 449 kts 98°
2026-04-16 15:40 51.20990 0.78426 23564 ft 453 kts 98°
2026-04-16 15:41 51.20587 0.83426 24030 ft 456 kts 98°
2026-04-16 15:41 51.20182 0.88467 24483 ft 460 kts 98°
2026-04-16 15:41 51.19774 0.93550 24921 ft 464 kts 98°
2026-04-16 15:41 51.19361 0.98662 25400 ft 467 kts 98°
2026-04-16 15:42 51.18942 1.03816 25806 ft 470 kts 98°
2026-04-16 15:42 51.18518 1.09008 26203 ft 474 kts 98°
2026-04-16 15:42 51.18086 1.14262 26607 ft 478 kts 98°
2026-04-16 15:42 51.17655 1.19474 26988 ft 482 kts 98°
2026-04-16 15:43 51.17209 1.24795 27373 ft 485 kts 99°
2026-04-16 15:43 51.16753 1.30154 27745 ft 489 kts 99°
2026-04-16 15:43 51.16294 1.35551 28115 ft 492 kts 98°
2026-04-16 15:43 51.15900 1.40917 28458 ft 496 kts 96°
2026-04-16 15:44 51.15598 1.46436 28817 ft 500 kts 95°
2026-04-16 15:44 51.15363 1.52002 29168 ft 503 kts 94°
2026-04-16 15:44 51.15157 1.57533 29501 ft 506 kts 94°
2026-04-16 15:44 51.14944 1.63148 29837 ft 509 kts 94°
2026-04-16 15:45 51.14708 1.68808 30166 ft 513 kts 94°
2026-04-16 15:45 51.14441 1.74486 30458 ft 516 kts 95°
2026-04-16 15:45 51.14146 1.80216 30742 ft 518 kts 95°
2026-04-16 15:45 51.13840 1.85868 31127 ft 518 kts 95°
2026-04-16 15:46 51.13525 1.91573 31546 ft 517 kts 95°
2026-04-16 15:46 51.13212 1.97298 31954 ft 517 kts 95°
2026-04-16 15:46 51.12904 2.03006 32367 ft 516 kts 95°
2026-04-16 15:46 51.12603 2.08647 32776 ft 516 kts 95°
2026-04-16 15:47 51.12301 2.14347 33185 ft 515 kts 95°
2026-04-16 15:47 51.11998 2.20042 33602 ft 515 kts 95°
2026-04-16 15:47 51.11697 2.25682 34019 ft 515 kts 95°
2026-04-16 15:47 51.11389 2.31391 34414 ft 514 kts 95°
2026-04-16 15:48 51.11078 2.37069 34790 ft 513 kts 95°
2026-04-16 15:48 51.10768 2.42663 35166 ft 513 kts 95°
2026-04-16 15:48 51.10448 2.48326 35536 ft 512 kts 95°
2026-04-16 15:48 51.10124 2.53962 35898 ft 511 kts 95°
2026-04-16 15:49 51.09775 2.59587 36251 ft 510 kts 98°
2026-04-16 15:49 51.09058 2.65104 36595 ft 509 kts 107°
2026-04-16 15:49 51.07877 2.70397 36932 ft 505 kts 116°
2026-04-16 15:49 51.06369 2.75431 37258 ft 504 kts 118°
2026-04-16 15:50 51.04847 2.80428 37569 ft 503 kts 118°
2026-04-16 15:50 51.03343 2.85374 37890 ft 502 kts 118°
2026-04-16 15:50 51.01823 2.90369 38192 ft 502 kts 118°
2026-04-16 15:50 51.00301 2.95353 38498 ft 501 kts 118°
2026-04-16 15:51 50.98779 3.00317 38786 ft 500 kts 118°
2026-04-16 15:51 50.97255 3.05278 39037 ft 500 kts 118°
2026-04-16 15:51 50.95730 3.10233 39197 ft 500 kts 118°
2026-04-16 15:52 50.92680 3.20127 39228 ft 499 kts 118°
2026-04-16 15:52 50.89631 3.29997 39222 ft 498 kts 118°
2026-04-16 15:53 50.86570 3.39834 39227 ft 498 kts 118°
2026-04-16 15:53 50.83502 3.49647 39224 ft 497 kts 118°
2026-04-16 15:54 50.80447 3.59409 39211 ft 497 kts 118°
2026-04-16 15:54 50.77364 3.69225 39218 ft 497 kts 118°
2026-04-16 15:55 50.74269 3.79027 39220 ft 497 kts 118°
2026-04-16 15:55 50.71172 3.88762 39227 ft 497 kts 118°
2026-04-16 15:56 50.68075 3.98462 39229 ft 497 kts 118°
2026-04-16 15:56 50.64959 4.08218 39236 ft 497 kts 118°
2026-04-16 15:57 50.61837 4.17966 39245 ft 497 kts 118°
2026-04-16 15:57 50.58720 4.27638 39255 ft 497 kts 118°
2026-04-16 15:58 50.55598 4.37298 39239 ft 497 kts 118°
2026-04-16 15:58 50.52451 4.46993 39253 ft 497 kts 118°
2026-04-16 15:59 50.47719 4.61480 39257 ft 497 kts 119°
2026-04-16 15:59 50.44562 4.71125 39245 ft 497 kts 118°
2026-04-16 16:00 50.41404 4.80750 39244 ft 497 kts 118°
2026-04-16 16:00 50.38246 4.90303 39239 ft 497 kts 119°
2026-04-16 16:01 50.35058 4.99908 39236 ft 497 kts 119°
2026-04-16 16:01 50.31838 5.09564 39235 ft 497 kts 118°
2026-04-16 16:02 50.28661 5.19071 39213 ft 497 kts 118°
2026-04-16 16:02 50.25448 5.28638 39218 ft 497 kts 118°
2026-04-16 16:03 50.22232 5.38197 39218 ft 497 kts 119°
2026-04-16 16:03 50.18994 5.47760 39222 ft 497 kts 119°
2026-04-16 16:04 50.15766 5.57269 39223 ft 497 kts 118°
2026-04-16 16:04 50.12523 5.66810 39224 ft 497 kts 118°
2026-04-16 16:05 50.09288 5.76267 39224 ft 497 kts 118°
2026-04-16 16:05 50.05990 5.85725 39221 ft 496 kts 120°
2026-04-16 16:06 50.02535 5.95014 39208 ft 496 kts 121°
2026-04-16 16:06 49.99024 6.04245 39213 ft 496 kts 121°
2026-04-16 16:07 49.95542 6.13488 39219 ft 496 kts 121°
2026-04-16 16:07 49.92071 6.22744 39218 ft 496 kts 121°
2026-04-16 16:08 49.88596 6.31989 39223 ft 496 kts 121°
2026-04-16 16:08 49.85112 6.41213 39220 ft 496 kts 121°
2026-04-16 16:09 49.81639 6.50350 39219 ft 495 kts 121°
2026-04-16 16:09 49.78139 6.59530 39199 ft 495 kts 121°
2026-04-16 16:10 49.74640 6.68684 39204 ft 495 kts 121°
2026-04-16 16:10 49.71135 6.77838 39218 ft 495 kts 121°
2026-04-16 16:11 49.67619 6.86977 39225 ft 495 kts 121°
2026-04-16 16:11 49.64089 6.96097 39223 ft 495 kts 121°
2026-04-16 16:12 49.61147 7.03677 39236 ft 495 kts 121°
2026-04-16 16:12 49.57026 7.14282 39234 ft 495 kts 121°
2026-04-16 16:13 49.54076 7.21843 39226 ft 494 kts 121°
2026-04-16 16:13 49.49944 7.32384 39221 ft 494 kts 121°
2026-04-16 16:14 49.46988 7.39919 39218 ft 493 kts 121°
2026-04-16 16:14 49.43433 7.48947 39222 ft 493 kts 121°
2026-04-16 16:15 49.39888 7.57907 39215 ft 493 kts 121°
2026-04-16 16:15 49.36312 7.66898 39218 ft 493 kts 121°
2026-04-16 16:16 49.32756 7.75838 39219 ft 492 kts 121°
2026-04-16 16:16 49.29179 7.84803 39212 ft 492 kts 121°
2026-04-16 16:17 49.25583 7.93761 39211 ft 492 kts 121°
2026-04-16 16:17 49.21993 8.02685 39210 ft 492 kts 121°
2026-04-16 16:18 49.18407 8.11577 39217 ft 491 kts 121°
2026-04-16 16:18 49.14813 8.20448 39218 ft 491 kts 121°
2026-04-16 16:19 49.11237 8.29245 39221 ft 490 kts 121°
2026-04-16 16:19 49.07634 8.38066 39220 ft 490 kts 121°
2026-04-16 16:20 49.04025 8.46887 39219 ft 490 kts 121°
2026-04-16 16:20 49.00342 8.55624 39219 ft 490 kts 127°
2026-04-16 16:21 48.95562 8.62954 39206 ft 488 kts 143°
2026-04-16 16:21 48.90234 8.69357 39216 ft 488 kts 143°
2026-04-16 16:22 48.84906 8.75782 39220 ft 489 kts 142°
2026-04-16 16:22 48.79590 8.82193 39235 ft 489 kts 143°
2026-04-16 16:23 48.74256 8.88592 39236 ft 489 kts 143°
2026-04-16 16:23 48.68917 8.94959 39222 ft 489 kts 143°
2026-04-16 16:24 48.63571 9.01316 39228 ft 488 kts 143°
2026-04-16 16:24 48.58233 9.07655 39230 ft 488 kts 143°
2026-04-16 16:25 48.52889 9.13984 39240 ft 488 kts 143°
2026-04-16 16:25 48.47544 9.20298 39240 ft 488 kts 143°
2026-04-16 16:26 48.42202 9.26590 39239 ft 487 kts 143°
2026-04-16 16:26 48.36853 9.32869 39242 ft 487 kts 143°
2026-04-16 16:27 48.31507 9.39133 39241 ft 487 kts 143°
2026-04-16 16:27 48.26196 9.45337 39226 ft 487 kts 143°
2026-04-16 16:28 48.20900 9.51669 39249 ft 487 kts 141°
2026-04-16 16:28 48.15699 9.58158 39255 ft 486 kts 141°
2026-04-16 16:29 48.10506 9.64635 39259 ft 486 kts 141°
2026-04-16 16:29 48.05278 9.71044 39258 ft 486 kts 142°
2026-04-16 16:30 48.00037 9.77414 39248 ft 485 kts 142°
2026-04-16 16:30 47.94804 9.83770 39260 ft 485 kts 142°
2026-04-16 16:31 47.89570 9.90120 39263 ft 484 kts 142°
2026-04-16 16:31 47.84346 9.96451 39263 ft 484 kts 142°
2026-04-16 16:32 47.79124 10.02766 39257 ft 483 kts 142°
2026-04-16 16:32 47.73903 10.09052 39251 ft 483 kts 142°
2026-04-16 16:33 47.68675 10.15329 39261 ft 483 kts 142°
2026-04-16 16:33 47.63454 10.21589 39260 ft 483 kts 142°
2026-04-16 16:34 47.58226 10.27827 39262 ft 482 kts 142°
2026-04-16 16:34 47.52831 10.33588 39247 ft 481 kts 148°
2026-04-16 16:35 47.47241 10.39015 39258 ft 481 kts 148°
2026-04-16 16:35 47.41657 10.44424 39258 ft 480 kts 148°
2026-04-16 16:36 47.36063 10.49834 39262 ft 480 kts 148°
2026-04-16 16:36 47.30469 10.55228 39245 ft 480 kts 148°
2026-04-16 16:37 47.24924 10.60699 39248 ft 480 kts 146°
2026-04-16 16:37 47.19508 10.66450 39239 ft 480 kts 144°
2026-04-16 16:38 47.14117 10.72242 39237 ft 480 kts 145°
2026-04-16 16:38 47.08693 10.77954 39232 ft 479 kts 146°
2026-04-16 16:39 47.03252 10.83591 39221 ft 478 kts 146°
2026-04-16 16:39 46.97823 10.89209 39217 ft 478 kts 146°
2026-04-16 16:40 46.92404 10.94823 39200 ft 477 kts 146°
2026-04-16 16:40 46.87004 11.00424 39189 ft 476 kts 145°
2026-04-16 16:41 46.81642 11.06094 39178 ft 477 kts 140°
2026-04-16 16:41 46.76955 11.12920 39163 ft 476 kts 134°
2026-04-16 16:42 46.72399 11.19810 39158 ft 474 kts 134°
2026-04-16 16:42 46.67798 11.26735 39111 ft 474 kts 135°
2026-04-16 16:43 46.63198 11.33639 39095 ft 474 kts 134°
2026-04-16 16:43 46.58633 11.40488 39084 ft 474 kts 135°
2026-04-16 16:44 46.54037 11.47362 39083 ft 472 kts 135°
2026-04-16 16:44 46.49469 11.54172 39100 ft 472 kts 135°
2026-04-16 16:45 46.44901 11.60951 39109 ft 472 kts 135°
2026-04-16 16:45 46.40307 11.67764 39158 ft 471 kts 135°
2026-04-16 16:46 46.35720 11.74549 39139 ft 471 kts 135°
2026-04-16 16:46 46.31131 11.81316 39155 ft 471 kts 135°
2026-04-16 16:47 46.26545 11.88067 39155 ft 471 kts 135°
2026-04-16 16:47 46.21951 11.94816 39156 ft 471 kts 135°
2026-04-16 16:48 46.17350 12.01554 39164 ft 471 kts 135°
2026-04-16 16:48 46.12751 12.08275 39165 ft 470 kts 135°
2026-04-16 16:49 46.08155 12.14968 39158 ft 470 kts 135°